Location: Unspecified
(35.7250°N, 0.0000°E)
Time: 02:59:27
(UTC+00:00)

Vanguard 1 Rocket - Pass Details

Date: 17 June 2019
Orbit: 650 x 4226 km, 34.3° (Epoch: 12 October)

Event Time Altitude Azimuth Distance (km) Brightness Sun altitude
Rises 21:08:18 0° 270° (W) 5,261 11.9 -18.2°
Reaches altitude 10° 21:12:31 10° 270° (W) 3,721 11.0 -18.7°
Maximum altitude 21:20:59 79° 184° (S) 978 7.4 -19.8°
Enters shadow 21:23:41 31° 102° (ESE) 1,414 7.9 -20.2°
Drops below altitude 10° 21:25:58 10° 99° (E) 2,242 - -20.4°
Sets 21:27:56 0° 97° (E) 3,044 - -20.7°
